Time,TemperatureF,DewpointF,PressureIn,WindDirection,WindDirectionDegrees,WindSpeedMPH,WindSpeedGustMPH,Humidity,HourlyPrecipIn,Conditions,Clouds,dailyrainin,SoftwareType,DateUTC
2013-12-08 00:00:00,19.6,10.0,30.48,SE,135,1.0,6.0,65,0.00,,,0.00,weatherlink.com 1.10,2013-12-08 06:00:00,
2013-12-08 00:15:00,19.7,10.0,30.49,East,86,3.0,5.0,65,0.00,,,0.00,weatherlink.com 1.10,2013-12-08 06:15:00,
2013-12-08 00:30:00,19.8,10.0,30.48,East,87,3.0,7.0,66,0.00,,,0.00,weatherlink.com 1.10,2013-12-08 06:30:00,
2013-12-08 00:45:00,19.9,10.0,30.47,NE,39,2.0,6.0,66,0.00,,,0.00,weatherlink.com 1.10,2013-12-08 06:45:00,
2013-12-08 01:00:00,19.9,11.0,30.47,ESE,112,4.0,7.0,67,0.00,,,0.00,weatherlink.com 1.10,2013-12-08 07:00:00,
2013-12-08 01:15:00,20.0,11.0,30.46,ENE,77,2.0,7.0,67,0.00,,,0.00,weatherlink.com 1.10,2013-12-08 07:15:00,
2013-12-08 01:30:00,20.1,11.0,30.45,ENE,72,4.0,5.0,68,0.00,,,0.00,weatherlink.com 1.10,2013-12-08 07:30:00,
2013-12-08 01:45:00,20.2,11.0,30.45,ENE,63,1.0,8.0,68,0.00,,,0.00,weatherlink.com 1.10,2013-12-08 07:45:00,
2013-12-08 02:00:00,20.3,12.0,30.44,ENE,67,1.0,6.0,69,0.00,,,0.00,weatherlink.com 1.10,2013-12-08 08:00:00,
2013-12-08 02:15:00,20.4,12.0,30.43,ENE,73,3.0,5.0,69,0.00,,,0.00,weatherlink.com 1.10,2013-12-08 08:15:00,
2013-12-08 02:30:00,20.4,13.0,30.43,ESE,117,2.0,2.0,72,0.00,,,0.00,weatherlink.com 1.10,2013-12-08 08:30:00,
2013-12-08 02:45:00,19.8,14.0,30.43,NE,51,4.0,5.0,78,0.00,,,0.00,weatherlink.com 1.10,2013-12-08 08:45:00,
2013-12-08 03:00:00,19.5,15.0,30.41,NE,52,2.0,4.0,81,0.00,,,0.00,weatherlink.com 1.10,2013-12-08 09:00:00,
2013-12-08 03:15:00,19.2,15.0,30.40,ENE,68,3.0,4.0,83,0.00,,,0.00,weatherlink.com 1.10,2013-12-08 09:15:00,
2013-12-08 03:30:00,19.1,15.0,30.40,NE,51,5.0,6.0,84,0.00,,,0.00,weatherlink.com 1.10,2013-12-08 09:30:00,
2013-12-08 03:45:00,19.0,16.0,30.38,ENE,67,6.0,7.0,86,0.00,,,0.00,weatherlink.com 1.10,2013-12-08 09:45:00,
2013-12-08 04:00:00,19.2,15.0,30.38,ESE,105,3.0,6.0,85,0.00,,,0.00,weatherlink.com 1.10,2013-12-08 10:00:00,
2013-12-08 04:15:00,19.4,16.0,30.36,NE,56,9.0,9.0,85,0.00,,,0.00,weatherlink.com 1.10,2013-12-08 10:15:00,
2013-12-08 04:30:00,19.5,16.0,30.35,NNW,348,0.0,3.0,85,0.00,,,0.00,weatherlink.com 1.10,2013-12-08 10:30:00,
2013-12-08 04:45:00,19.5,15.0,30.34,ENE,70,4.0,8.0,84,0.00,,,0.00,weatherlink.com 1.10,2013-12-08 10:45:00,
2013-12-08 05:00:00,19.3,16.0,30.33,North,8,2.0,7.0,85,0.00,,,0.00,weatherlink.com 1.10,2013-12-08 11:00:00,
2013-12-08 05:15:00,19.3,16.0,30.32,NE,53,1.0,9.0,85,0.00,,,0.00,weatherlink.com 1.10,2013-12-08 11:15:00,
2013-12-08 05:30:00,19.5,16.0,30.31,East,81,2.0,9.0,85,0.00,,,0.00,weatherlink.com 1.10,2013-12-08 11:30:00,
2013-12-08 05:45:00,19.6,16.0,30.31,ENE,57,3.0,8.0,86,0.00,,,0.00,weatherlink.com 1.10,2013-12-08 11:45:00,
2013-12-08 06:01:00,19.6,16.0,30.30,ENE,61,5.0,8.0,86,0.00,,,0.00,weatherlink.com 1.10,2013-12-08 12:01:00,
2013-12-08 06:16:00,19.7,16.0,30.30,NE,51,5.0,8.0,86,0.00,,,0.00,weatherlink.com 1.10,2013-12-08 12:16:00,
2013-12-08 06:31:00,19.7,16.0,30.29,East,79,2.0,6.0,86,0.00,,,0.00,weatherlink.com 1.10,2013-12-08 12:31:00,
2013-12-08 06:46:00,19.8,16.0,30.29,NE,54,3.0,9.0,86,0.00,,,0.00,weatherlink.com 1.10,2013-12-08 12:46:00,
2013-12-08 07:01:00,19.9,16.0,30.28,NE,56,10.0,10.0,86,0.00,,,0.00,weatherlink.com 1.10,2013-12-08 13:01:00,
2013-12-08 07:16:00,20.0,17.0,30.29,ESE,122,3.0,5.0,86,0.00,,,0.00,weatherlink.com 1.10,2013-12-08 13:16:00,
2013-12-08 07:31:00,20.1,17.0,30.27,NE,50,3.0,6.0,86,0.00,,,0.00,weatherlink.com 1.10,2013-12-08 13:31:00,
2013-12-08 07:46:00,20.4,17.0,30.27,East,96,1.0,7.0,86,0.00,,,0.00,weatherlink.com 1.10,2013-12-08 13:46:00,
2013-12-08 08:01:00,20.7,17.0,30.27,ENE,73,4.0,6.0,86,0.00,,,0.00,weatherlink.com 1.10,2013-12-08 14:01:00,
2013-12-08 08:16:00,20.9,17.0,30.26,SE,136,3.0,7.0,86,0.00,,,0.00,weatherlink.com 1.10,2013-12-08 14:16:00,
2013-12-08 08:31:00,21.2,18.0,30.26,East,101,3.0,7.0,86,0.00,,,0.00,weatherlink.com 1.10,2013-12-08 14:31:00,
2013-12-08 08:46:00,21.6,18.0,30.26,East,82,2.0,7.0,86,0.00,,,0.00,weatherlink.com 1.10,2013-12-08 14:46:00,
2013-12-08 09:01:00,22.0,19.0,30.27,East,91,2.0,5.0,86,0.00,,,0.00,weatherlink.com 1.10,2013-12-08 15:01:00,
2013-12-08 09:16:00,22.3,19.0,30.26,East,101,2.0,5.0,85,0.00,,,0.00,weatherlink.com 1.10,2013-12-08 15:16:00,
2013-12-08 09:31:00,22.7,19.0,30.25,East,85,2.0,5.0,85,0.00,,,0.00,weatherlink.com 1.10,2013-12-08 15:31:00,
2013-12-08 09:46:00,23.0,19.0,30.25,East,82,3.0,8.0,85,0.00,,,0.00,weatherlink.com 1.10,2013-12-08 15:46:00,
2013-12-08 10:01:00,23.5,20.0,30.25,SE,136,2.0,6.0,86,0.00,,,0.00,weatherlink.com 1.10,2013-12-08 16:01:00,
2013-12-08 10:16:00,23.5,20.0,30.23,East,81,4.0,7.0,87,0.00,,,0.00,weatherlink.com 1.10,2013-12-08 16:16:00,
2013-12-08 10:31:00,23.9,21.0,30.22,East,92,3.0,6.0,89,0.00,,,0.00,weatherlink.com 1.10,2013-12-08 16:31:00,
2013-12-08 10:46:00,23.8,21.0,30.21,ENE,69,4.0,7.0,89,0.00,,,0.00,weatherlink.com 1.10,2013-12-08 16:46:00,
2013-12-08 11:01:00,24.1,22.0,30.20,SE,135,3.0,7.0,90,0.00,,,0.00,weatherlink.com 1.10,2013-12-08 17:01:00,
2013-12-08 11:16:00,24.2,22.0,30.19,East,82,2.0,6.0,90,0.00,,,0.00,weatherlink.com 1.10,2013-12-08 17:16:00,
2013-12-08 11:31:00,24.6,22.0,30.18,East,98,2.0,5.0,90,0.00,,,0.00,weatherlink.com 1.10,2013-12-08 17:31:00,
2013-12-08 11:47:00,24.8,22.0,30.16,ESE,105,3.0,5.0,89,0.00,,,0.00,weatherlink.com 1.10,2013-12-08 17:47:00,
2013-12-08 12:01:00,24.9,22.0,30.14,ESE,110,6.0,7.0,88,0.00,,,0.00,weatherlink.com 1.10,2013-12-08 18:01:00,
2013-12-08 12:16:00,25.2,22.0,30.13,ESE,111,6.0,6.0,88,0.00,,,0.00,weatherlink.com 1.10,2013-12-08 18:16:00,
2013-12-08 12:31:00,25.1,22.0,30.13,ESE,108,4.0,7.0,87,0.00,,,0.00,weatherlink.com 1.10,2013-12-08 18:31:00,
2013-12-08 12:46:00,25.1,22.0,30.11,SE,127,5.0,10.0,87,0.00,,,0.00,weatherlink.com 1.10,2013-12-08 18:46:00,
2013-12-08 13:01:00,25.0,21.0,30.10,ESE,116,5.0,11.0,86,0.00,,,0.00,weatherlink.com 1.10,2013-12-08 19:01:00,
2013-12-08 13:17:00,24.7,21.0,30.08,ESE,113,4.0,9.0,87,0.00,,,0.00,weatherlink.com 1.10,2013-12-08 19:17:00,
2013-12-08 13:32:00,24.8,22.0,30.08,SE,130,4.0,5.0,88,0.00,,,0.00,weatherlink.com 1.10,2013-12-08 19:32:00,
2013-12-08 13:47:00,24.5,22.0,30.07,SE,141,4.0,7.0,89,0.00,,,0.00,weatherlink.com 1.10,2013-12-08 19:47:00,
2013-12-08 14:02:00,24.4,22.0,30.06,ESE,108,3.0,7.0,91,0.00,,,0.00,weatherlink.com 1.10,2013-12-08 20:02:00,
2013-12-08 14:17:00,24.4,22.0,30.04,East,94,3.0,6.0,92,0.00,,,0.00,weatherlink.com 1.10,2013-12-08 20:17:00,
2013-12-08 14:32:00,24.5,23.0,30.04,SE,129,3.0,7.0,93,0.00,,,0.00,weatherlink.com 1.10,2013-12-08 20:32:00,
2013-12-08 14:47:00,24.5,23.0,30.03,SE,124,6.0,6.0,93,0.00,,,0.00,weatherlink.com 1.10,2013-12-08 20:47:00,
2013-12-08 15:02:00,24.6,23.0,30.05,SSE,154,1.0,7.0,93,0.00,,,0.00,weatherlink.com 1.10,2013-12-08 21:02:00,
2013-12-08 15:17:00,24.6,23.0,30.05,SE,127,2.0,4.0,93,0.00,,,0.00,weatherlink.com 1.10,2013-12-08 21:17:00,
2013-12-08 15:32:00,24.7,23.0,30.05,SE,127,1.0,2.0,93,0.00,,,0.00,weatherlink.com 1.10,2013-12-08 21:32:00,
2013-12-08 15:47:00,24.9,23.0,30.04,SSE,163,2.0,5.0,93,0.00,,,0.00,weatherlink.com 1.10,2013-12-08 21:47:00,
2013-12-08 16:02:00,25.0,23.0,30.05,South,186,1.0,3.0,93,0.00,,,0.00,weatherlink.com 1.10,2013-12-08 22:02:00,
2013-12-08 16:17:00,25.0,24.0,30.05,SSE,167,0.0,2.0,94,0.00,,,0.00,weatherlink.com 1.10,2013-12-08 22:17:00,
2013-12-08 16:32:00,25.1,24.0,30.04,ESE,115,1.0,4.0,94,0.00,,,0.00,weatherlink.com 1.10,2013-12-08 22:32:00,
2013-12-08 16:47:00,25.2,24.0,30.05,WSW,253,0.0,2.0,94,0.00,,,0.00,weatherlink.com 1.10,2013-12-08 22:47:00,
2013-12-08 17:02:00,25.3,24.0,30.05,West,262,1.0,6.0,94,0.00,,,0.00,weatherlink.com 1.10,2013-12-08 23:02:00,
2013-12-08 17:17:00,25.2,24.0,30.04,SSE,150,1.0,4.0,94,0.00,,,0.00,weatherlink.com 1.10,2013-12-08 23:17:00,
2013-12-08 17:32:00,25.0,24.0,30.04,ESE,123,0.0,4.0,94,0.00,,,0.00,weatherlink.com 1.10,2013-12-08 23:32:00,
2013-12-08 17:47:00,25.0,24.0,30.05,SSW,204,0.0,2.0,94,0.00,,,0.00,weatherlink.com 1.10,2013-12-08 23:47:00,
2013-12-08 18:02:00,25.0,24.0,30.04,SSW,205,0.0,2.0,94,0.00,,,0.00,weatherlink.com 1.10,2013-12-09 00:02:00,
2013-12-08 18:17:00,25.0,24.0,30.05,SSW,203,2.0,3.0,95,0.00,,,0.00,weatherlink.com 1.10,2013-12-09 00:17:00,
2013-12-08 18:32:00,25.0,24.0,30.06,WSW,242,0.0,2.0,95,0.00,,,0.00,weatherlink.com 1.10,2013-12-09 00:32:00,
2013-12-08 18:47:00,25.2,24.0,30.06,SW,236,0.0,3.0,95,0.00,,,0.00,weatherlink.com 1.10,2013-12-09 00:47:00,
2013-12-08 19:02:00,25.3,24.0,30.06,WSW,248,2.0,2.0,95,0.00,,,0.00,weatherlink.com 1.10,2013-12-09 01:02:00,
2013-12-08 19:17:00,25.4,24.0,30.06,SW,231,5.0,5.0,95,0.00,,,0.00,weatherlink.com 1.10,2013-12-09 01:17:00,
2013-12-08 19:32:00,25.4,24.0,30.07,SW,225,3.0,7.0,95,0.00,,,0.00,weatherlink.com 1.10,2013-12-09 01:32:00,
2013-12-08 19:47:00,25.4,24.0,30.07,WNW,282,1.0,4.0,95,0.00,,,0.00,weatherlink.com 1.10,2013-12-09 01:47:00,
2013-12-08 20:02:00,25.4,24.0,30.08,SSW,201,1.0,4.0,95,0.00,,,0.00,weatherlink.com 1.10,2013-12-09 02:02:00,
2013-12-08 20:17:00,25.4,24.0,30.08,West,276,3.0,6.0,95,0.00,,,0.00,weatherlink.com 1.10,2013-12-09 02:17:00,
2013-12-08 20:32:00,25.5,24.0,30.08,WSW,245,3.0,5.0,95,0.00,,,0.00,weatherlink.com 1.10,2013-12-09 02:32:00,
2013-12-08 20:47:00,25.5,24.0,30.08,SW,235,0.0,4.0,95,0.00,,,0.00,weatherlink.com 1.10,2013-12-09 02:47:00,
2013-12-08 21:02:00,25.5,24.0,30.08,West,278,0.0,3.0,95,0.00,,,0.00,weatherlink.com 1.10,2013-12-09 03:02:00,
2013-12-08 21:17:00,25.5,24.0,30.08,WSW,241,3.0,10.0,94,0.00,,,0.00,weatherlink.com 1.10,2013-12-09 03:17:00,
2013-12-08 21:32:00,25.6,24.0,30.08,West,259,0.0,7.0,94,0.00,,,0.00,weatherlink.com 1.10,2013-12-09 03:32:00,
2013-12-08 21:47:00,25.7,24.0,30.09,SW,233,2.0,10.0,93,0.00,,,0.00,weatherlink.com 1.10,2013-12-09 03:47:00,
2013-12-08 22:17:00,25.9,24.0,30.09,West,274,3.0,6.0,92,0.00,,,0.00,weatherlink.com 1.10,2013-12-09 04:17:00,
2013-12-08 22:32:00,25.9,24.0,30.10,WSW,241,2.0,8.0,92,0.00,,,0.00,weatherlink.com 1.10,2013-12-09 04:32:00,
2013-12-08 22:47:00,25.9,24.0,30.10,West,262,6.0,7.0,91,0.00,,,0.00,weatherlink.com 1.10,2013-12-09 04:47:00,
2013-12-08 23:02:00,25.9,24.0,30.10,WSW,240,5.0,5.0,91,0.00,,,0.00,weatherlink.com 1.10,2013-12-09 05:02:00,
2013-12-08 23:17:00,25.9,24.0,30.10,West,269,4.0,7.0,91,0.00,,,0.00,weatherlink.com 1.10,2013-12-09 05:17:00,
2013-12-08 23:32:00,26.0,24.0,30.11,WSW,250,0.0,6.0,91,0.00,,,0.00,weatherlink.com 1.10,2013-12-09 05:32:00,
2013-12-08 23:47:00,26.0,24.0,30.11,WNW,303,4.0,11.0,90,0.00,,,0.00,weatherlink.com 1.10,2013-12-09 05:47:00,